Weather History for Saint Simons Island, GA

Change the Weather History Date:

Thursday, May 2, 2013

  Actual Average Record
Temperature  
Mean Temperature 70 °F 71 °F  
Max Temperature 72 °F 79 °F 93 °F (1953)
Min Temperature 67 °F 63 °F 46 °F (1963)
Degree Days  
Heating Degree Days 0 1  
Month to date heating degree days 0 2  
Since 1 July heating degree days 1267 1486  
Cooling Degree Days 5 6  
Month to date cooling degree days 10 12  
Year to date cooling degree days 156 155  
Growing Degree Days 19 (Base 50)    
Moisture  
Dew Point 65 °F    
Average Humidity 83    
Maximum Humidity 93    
Minimum Humidity 73    
Precipitation  
Precipitation 0.34 in 0.05 in 2.24 in (1966)
Month to date precipitation 0.44 0.10  
Year to date precipitation 9.46 13.16  
Snow  
Snow 0.00 in - 0.00 in ()
Month to date snowfall 0.0  
Since 1 July snowfall 0.0  
Snow Depth 0.00 in    
Sea Level Pressure  
Sea Level Pressure 30.03 in    
Wind  
Wind Speed 13 mph (NE)    
Max Wind Speed 20 mph    
Max Gust Speed 30 mph    
Visibility 8 miles    
Events Rain    
T = Trace of Precipitation, MM = Missing Value Source: NWS Daily Summary

Daily Weather History Graph

Daily Weather History Graph

Search for Another Location

Airport:

Trip Planner

Search our weather history database for the weather conditions in past years. The results will help you decide how hot, cold, wet, or windy it might be!

Date:

Astronomy

May. 02, 2013 Rise Set
Actual Time 6:39 AM EDT 8:05 PM EDT
Civil Twilight 6:14 AM EDT 8:31 PM EDT
Nautical Twilight 5:43 AM EDT 9:02 PM EDT
Astronomical Twilight 5:11 AM EDT 9:34 PM EDT
Moon 1:57 AM EDT (5/2) 1:20 PM EDT (5/2)
Length of Visible Light 14h 17m
Length of Day
13h 25m
Waning Gibbous, 48% of the Moon is Illuminated
May 2
Waning Gibbous
May 9
New
May 18
First Quarter
May 25
Full
May 31
Last Quarter

Hourly Weather History & Observations

Time (EDT) Temp. Dew Point Humidity Pressure Visibility Wind Dir Wind Speed Gust Speed Precip Events Conditions
12:33 AM 66.2 °F 64.4 °F 94% 30.07 in 6.0 mi NNE 15.0 mph 21.9 mph 0.02 in Rain Light Rain
12:53 AM 66.9 °F 64.9 °F 93% 30.07 in 10.0 mi NNE 16.1 mph 23.0 mph 0.02 in   Mostly Cloudy
1:01 AM 66.2 °F 64.4 °F 94% 30.07 in 10.0 mi NE 13.8 mph - N/A   Mostly Cloudy
1:53 AM 66.9 °F 64.9 °F 93% 30.05 in 2.5 mi NNE 15.0 mph 23.0 mph 0.07 in Rain Light Rain
2:00 AM 66.2 °F 64.4 °F 94% 30.04 in 8.0 mi NNE 16.1 mph 25.3 mph 0.01 in Rain Light Rain
2:53 AM 68.0 °F 66.0 °F 93% 30.03 in 10.0 mi NE 16.1 mph 23.0 mph 0.01 in   Overcast
3:50 AM 68.0 °F 66.2 °F 94% 30.02 in 2.0 mi NNE 13.8 mph 21.9 mph 0.13 in Rain Rain
3:53 AM 68.0 °F 66.0 °F 93% 30.02 in 3.0 mi NE 15.0 mph - 0.14 in Rain Light Rain
4:10 AM 68.0 °F 66.2 °F 94% 30.01 in 8.0 mi NE 13.8 mph 20.7 mph 0.01 in Rain Light Rain
4:18 AM 68.0 °F 66.2 °F 94% 30.01 in 10.0 mi NE 15.0 mph - 0.01 in   Overcast
4:53 AM 68.0 °F 66.0 °F 93% 30.01 in 4.0 mi NE 10.4 mph 19.6 mph 0.03 in Rain Light Rain
5:00 AM 68.0 °F 66.2 °F 94% 30.01 in 5.0 mi NE 10.4 mph - 0.00 in Rain Light Rain
5:26 AM 68.0 °F 66.2 °F 94% 30.01 in 10.0 mi NE 11.5 mph - 0.01 in   Overcast
5:53 AM 68.0 °F 66.0 °F 93% 30.01 in 9.0 mi NE 11.5 mph - 0.01 in   Overcast
6:53 AM 70.0 °F 64.9 °F 84% 30.02 in 10.0 mi NE 11.5 mph 21.9 mph N/A   Mostly Cloudy
7:53 AM 70.0 °F 64.9 °F 84% 30.03 in 10.0 mi ENE 13.8 mph 20.7 mph N/A   Overcast
8:53 AM 71.1 °F 64.9 °F 81% 30.04 in 10.0 mi NE 15.0 mph 21.9 mph N/A   Overcast
9:53 AM 71.1 °F 66.0 °F 84% 30.05 in 10.0 mi NE 16.1 mph 21.9 mph 0.00 in   Overcast
10:53 AM 71.1 °F 66.0 °F 84% 30.05 in 9.0 mi ENE 15.0 mph 23.0 mph 0.01 in Rain Light Rain
11:53 AM 70.0 °F 66.0 °F 87% 30.07 in 8.0 mi East 11.5 mph - 0.00 in Rain Light Rain
12:53 PM 71.1 °F 64.9 °F 81% 30.05 in 8.0 mi ENE 11.5 mph 17.3 mph 0.00 in   Overcast
1:53 PM 71.1 °F 64.0 °F 78% 30.04 in 10.0 mi ENE 12.7 mph - N/A   Overcast
2:53 PM 72.0 °F 63.0 °F 73% 30.03 in 10.0 mi ENE 12.7 mph - N/A   Overcast
3:53 PM 70.0 °F 64.9 °F 84% 30.02 in 10.0 mi NE 12.7 mph - N/A   Overcast
4:53 PM 70.0 °F 64.0 °F 81% 30.01 in 10.0 mi NE 11.5 mph - 0.00 in   Overcast
5:53 PM 71.1 °F 64.9 °F 81% 30.00 in 10.0 mi NE 13.8 mph - N/A   Overcast
6:53 PM 70.0 °F 64.9 °F 84% 30.00 in 10.0 mi NE 16.1 mph 24.2 mph N/A   Mostly Cloudy
7:53 PM 68.0 °F 64.9 °F 90% 30.00 in 7.0 mi NE 11.5 mph - 0.04 in Rain Light Rain
8:53 PM 69.1 °F 64.9 °F 87% 30.00 in 10.0 mi NE 10.4 mph - 0.00 in   Overcast
9:53 PM 70.0 °F 64.0 °F 81% 30.01 in 10.0 mi NE 12.7 mph 19.6 mph 0.00 in Rain Light Rain
10:53 PM 70.0 °F 64.9 °F 84% 30.01 in 10.0 mi NE 17.3 mph 25.3 mph 0.00 in   Overcast
11:53 PM 69.1 °F 64.9 °F 87% 30.00 in 7.0 mi NE 15.0 mph 21.9 mph 0.01 in Rain Light Rain